Regional Weather Roundup
Issued by NWS

Home | Current Version | Previous Version | Text Only | Print | Product List | Glossary Off
Versions: 1 2 3 4 5 6 7 8 9 10 11 12 13 14 15 16 17 18 19 20 21 22 23 24 25 26 27 28 29 30 31 32 33 34 35 36 37 38 39 40 41 42 43 44 45 46 47 48 49 50

000
ASUS43 KOAX 250202
RWRNE

WEATHER ROUNDUP FOR NEBRASKA
NATIONAL WEATHER SERVICE OMAHA NE
900 PM CDT MON JUL 24 2017

NOTES: SATELLITE DATA IS BEING USED TO AUGMENT CLOUD COVER ABOVE
       12000 FEET.
       "FAIR" INDICATES FEW OR NO CLOUDS BELOW 12,000 FEET WITH NO
       SIGNIFICANT WEATHER AND/OR OBSTRUCTIONS TO VISIBILITY.


NEZ001>004-019>022-054>056-250300-
NEBRASKA PANHANDLE

CITY           SKY/WX    TMP DP  RH WIND       PRES   REMARKS
SCOTTSBLUFF    CLOUDY    85  56  37 E13       29.89R
ALLIANCE       CLEAR     84  50  30 S20       29.89R
CHADRON        CLEAR     92  43  18 NE9       29.80S
GORDON         FAIR      85  55  36 S8        29.85R
KIMBALL        CLOUDY    84  48  29 S8        29.99S
SIDNEY         PTCLDY    80  55  42 S14       29.99R
$$

NEZ057>060-069>072-079>082-250300-
SOUTHWEST NEBRASKA

CITY           SKY/WX    TMP DP  RH WIND       PRES   REMARKS
NORTH PLATTE   CLOUDY    89  54  30 S12       29.88F
IMPERIAL       CLOUDY    87  58  37 SE12      29.95R
LEXINGTON      PTCLDY    81  69  67 SE9       29.91S
MCCOOK         CLOUDY    89  54  30 S12       29.91S
OGALLALA       CLOUDY    85  50  29 SW13G25   29.88F
$$

NEZ005>010-023>029-035>040-094-250300-
NORTH CENTRAL NEBRASKA

CITY           SKY/WX    TMP DP  RH WIND       PRES   REMARKS
VALENTINE      PTCLDY    87  55  33 SE13G24   29.82R
AINSWORTH      CLOUDY    89  62  39 S24G33    29.82R
BROKEN BOW     PTCLDY    85  66  53 SE12      29.90S
O`NEILL        MOCLDY    84  71  65 SE14      29.90R
ORD            CLEAR     85  68  56 SE14G24   29.89R
THEDFORD       CLOUDY    92  52  25 S17G24    29.87R HX  90
$$

NEZ041-046>049-061>064-073>077-083>087-250300-
SOUTH CENTRAL NEBRASKA

CITY           SKY/WX    TMP DP  RH WIND       PRES   REMARKS
GRAND ISLAND   CLEAR     82  72  71 SE9       29.93S
AURORA         CLEAR     79  72  78 SE7       29.93S
HASTINGS       CLEAR     83  70  64 SE9       29.94R
HEBRON         CLEAR     82  70  66 SE6       29.93S
HOLDREGE       CLEAR     78  66  67 SE7       29.93R
KEARNEY        CLEAR     80  73  79 SE8       29.92S
YORK           CLEAR     81  72  74 SE9       29.94R
$$

NEZ011>018-030>034-042>045-250300-
NORTHEAST NEBRASKA

CITY           SKY/WX    TMP DP  RH WIND       PRES   REMARKS
NORFOLK        CLEAR     79  66  64 SE10      29.92R
ALBION         CLEAR     81  72  73 SE9       29.93R
BLAIR          CLEAR     77  68  72 SE7       29.96S
COLUMBUS       CLEAR     80  69  69 SE10      29.94R
FREMONT        CLEAR     80  66  62 SE10      29.96R
TEKAMAH        CLEAR     78  66  66 SE9       29.94S
WAYNE          PTCLDY    78  69  73 SE9       29.93S
$$

NEZ050>053-065>068-078-088>093-250300-
SOUTHEAST NEBRASKA

CITY           SKY/WX    TMP DP  RH WIND       PRES   REMARKS
LINCOLN        CLEAR     82  68  62 SE14      29.95S
OMAHA EPPLEY   PTCLDY    81  67  62 SE14      29.96S
BEATRICE       CLEAR     83  70  64 E7        29.95S
FALLS CITY     PTCLDY    76  68  76 E6        29.97R
NEBRASKA CITY  CLEAR     76  70  81 SE6       29.98R
PLATTSMOUTH    CLEAR     77  66  69 SE9       29.97S
$$

NEZ044-045-051>053-067-250300-
OMAHA AREA

CITY           SKY/WX    TMP DP  RH WIND       PRES   REMARKS
OMAHA EPPLEY   PTCLDY    81  67  62 SE14      29.96S
BLAIR          CLEAR     77  68  72 SE7       29.96S
FREMONT        CLEAR     80  66  62 SE10      29.96R
MILLARD        CLEAR     81  69  67 SE9       29.96S
OFFUTT AFB     CLEAR     77  67  72 E8        29.95S
PLATTSMOUTH    CLEAR     77  66  69 SE9       29.97S
WAHOO          FAIR      76  67  73 SE8       29.95S
$$



USA.gov is the U.S. government's official web portal to all federal, state and local government web resources and services.